Theta_e
323 327 328 327 326 328 329 329 328 328 328 327 326 326 327 326 323 317 314 311 310 312 313 314 315 313 312 310 306 305 303 299 298 297 296 296 296 296
329 329 329 329 329 329 328 327 327 327 326 325 323 324 324 322 314 319 319 312 312 313 315 316 314 312 310 309 307 305 300 298 297 297 297 297 296 296
329 329 329 329 328 327 327 326 327 325 325 322 321 324 321 317 310 318 317 315 314 315 316 316 313 312 310 308 307 304 300 298 297 296 297 296 296 296
329 328 328 328 327 327 326 325 325 325 325 321 320 319 320 319 319 322 321 321 319 316 318 318 314 311 309 307 306 302 299 297 296 296 296 297 296 296
330 330 328 329 329 328 327 325 323 321 322 320 318 319 320 319 318 317 316 317 317 317 319 318 315 311 308 306 304 301 299 297 297 296 296 296 296 295
331 330 330 329 327 326 325 320 317 318 319 319 319 319 318 317 319 319 318 318 318 318 319 318 315 311 308 305 303 301 299 298 296 296 295 295 295 295
327 328 328 327 324 320 315 318 311 319 320 320 319 319 320 318 317 320 319 319 318 318 313 316 314 310 308 304 302 301 300 298 296 295 295 295 295 294
317 317 318 318 317 317 319 318 319 321 321 320 320 321 321 320 320 320 320 319 318 316 315 313 309 308 305 303 302 301 300 298 296 295 295 294 294 293
318 319 319 318 317 317 316 315 317 317 318 318 322 322 321 323 320 318 318 318 318 318 316 313 311 307 305 303 301 301 300 299 297 295 294 294 293 293
315 314 314 313 311 310 309 309 309 310 311 310 311 314 311 313 311 313 315 317 316 316 315 312 311 309 307 304 302 301 300 299 298 296 294 294 293 292
308 307 308 309 311 310 310 310 310 311 311 312 313 313 313 313 311 309 314 314 315 314 313 310 309 307 307 307 303 301 300 299 297 295 294 293 293 292
306 307 309 311 313 313 314 314 314 314 314 314 314 314 313 313 311 310 308 311 312 311 310 307 308 307 306 306 305 303 301 300 297 294 293 293 293 291
311 313 314 315 315 315 315 314 314 313 313 312 312 311 311 311 310 310 308 305 307 308 307 306 306 305 303 304 304 304 303 300 298 296 293 293 293 294
314 315 315 314 314 313 312 312 311 311 310 310 311 311 311 310 310 309 309 308 307 305 305 301 304 303 302 301 302 302 301 301 300 298 297 296 294 296
316 314 313 312 311 311 310 310 310 312 315 316 315 314 314 312 311 314 317 315 314 315 310 307 301 305 296 296 299 299 299 300 300 299 298 296 295 295
312 312 311 311 311 311 311 313 316 319 318 317 316 314 313 313 316 315 312 311 309 310 308 306 304 302 301 301 298 297 299 299 299 299 298 298 295 294
313 314 315 316 316 315 317 317 316 316 317 317 316 317 317 314 313 313 310 309 308 308 307 307 306 305 304 303 302 301 300 300 301 300 299 298 295 296
316 316 318 318 316 317 320 321 320 319 318 318 316 313 312 311 309 306 306 306 306 306 306 306 305 304 304 304 303 301 301 301 301 301 299 297 296 295
317 319 318 316 318 319 320 320 318 315 314 309 308 309 308 305 305 305 305 305 305 305 305 304 304 303 302 301 302 302 301 301 301 300 299 297 296 295
318 318 319 320 320 319 317 314 309 308 309 309 308 307 305 304 304 304 304 304 303 303 303 303 302 302 301 301 301 300 300 300 300 300 299 297 296 295
318 319 319 318 318 317 316 311 309 309 310 308 305 300 301 302 302 302 302 302 302 302 302 302 303 301 301 300 300 300 300 298 297 297 296 295 294 294
321 320 321 319 313 310 311 313 311 305 299 297 296 297 297 297 299 300 301 302 302 301 301 301 300 300 299 299 298 297 298 297 295 294 294 294 294 294
311 314 311 313 313 309 302 299 298 297 295 294 295 295 295 296 297 298 300 300 300 299 299 298 298 298 297 295 294 294 294 294 293 293 294 294 295 293
Wind_Speed
21 28 22 15 18 28 30 34 31 23 15 17 12 16 13 14 13 12 12 13 12 9 6 5 6 7 7 8 9 10 11 11 10 9 9 9 9 10
19 17 19 23 27 32 30 28 17 14 12 19 10 16 13 11 14 12 11 11 10 8 7 7 8 9 11 12 12 12 13 11 10 10 10 10 11 13
16 15 18 26 29 31 22 20 10 12 12 14 12 18 17 13 15 11 12 11 11 10 9 10 11 13 14 14 14 15 14 13 11 11 11 12 14 16
16 15 22 19 22 15 14 15 11 10 11 17 16 17 15 13 13 12 11 10 10 10 12 14 14 16 17 17 18 17 16 14 13 13 13 15 18 19
16 16 20 15 16 14 13 13 10 8 12 16 18 15 13 14 15 14 13 14 11 14 16 19 19 20 21 21 20 18 18 17 16 16 17 18 19 20
15 15 14 14 17 17 13 12 14 13 14 12 14 13 12 15 11 11 16 17 16 19 21 23 23 24 24 23 23 22 21 20 20 19 20 20 21 22
19 17 16 15 16 15 11 12 14 13 12 11 10 10 9 9 14 12 14 13 18 22 19 24 25 26 27 26 27 25 24 23 22 22 22 23 23 23
19 18 17 16 15 13 11 11 13 13 13 11 8 7 8 10 12 15 13 15 17 20 21 23 24 24 24 28 28 28 26 26 25 25 25 24 24 22
16 15 13 13 13 12 12 11 11 11 11 9 7 9 10 14 15 18 19 18 20 16 26 23 21 29 25 25 32 31 29 30 29 28 27 26 24 22
14 13 12 12 12 12 11 9 9 10 9 9 12 11 11 14 14 17 19 21 22 23 26 27 23 26 26 25 31 33 32 32 32 32 30 27 24 23
14 14 14 14 14 12 11 10 8 7 7 7 7 8 11 14 17 18 18 17 21 21 23 31 27 24 25 27 26 34 33 33 35 35 32 28 25 23
16 15 14 15 13 11 10 8 5 4 5 8 12 15 17 19 20 22 22 20 22 24 21 30 25 22 24 26 26 27 33 32 35 36 33 28 25 21
15 14 12 10 8 6 5 5 6 9 12 15 18 20 21 22 23 24 24 25 22 26 23 28 27 25 26 30 24 23 25 26 29 33 35 32 27 23
11 10 9 7 7 9 8 9 11 13 16 17 16 15 15 15 15 17 22 25 27 32 31 34 31 28 29 31 30 25 29 25 25 27 26 28 28 28
11 12 8 9 12 13 13 14 15 17 18 17 15 15 14 14 20 24 27 30 31 33 33 34 38 40 40 40 33 30 28 26 29 31 30 30 28 20
11 8 11 14 17 19 17 14 15 17 15 14 14 14 16 17 19 21 18 20 26 31 32 32 32 32 34 35 37 38 36 38 31 39 33 31 27 22
9 10 12 13 12 10 9 9 9 9 10 10 12 12 13 15 17 21 23 22 20 23 23 21 22 28 30 31 32 32 34 35 37 34 33 27 28 26
12 11 9 9 8 6 6 7 5 6 7 11 10 11 17 20 24 22 17 18 20 21 23 23 23 23 25 29 30 35 32 33 34 31 28 26 34 36
15 13 13 12 7 6 3 3 3 6 8 6 10 12 16 17 14 17 19 19 21 22 22 23 24 24 27 30 29 24 27 28 30 30 27 35 43 31
13 9 8 6 5 6 4 5 2 6 9 11 15 16 15 13 15 15 18 19 21 22 22 22 23 21 19 27 31 29 27 27 27 32 32 32 33 26
7 8 8 9 8 8 6 5 7 10 16 16 17 14 11 11 12 14 16 18 20 20 22 22 20 20 19 21 24 28 28 30 31 32 33 33 22 17
11 9 9 7 8 8 4 5 9 6 4 8 9 10 11 12 14 16 15 17 18 19 20 20 21 21 21 24 28 31 31 36 32 23 21 22 22 19
14 14 14 7 3 3 8 7 6 8 8 7 8 11 13 15 16 16 15 16 17 19 19 22 22 21 22 24 27 29 29 24 22 21 16 15 17 22
Wind_Direction
166 190 195 197 177 176 160 163 154 149 161 177 173 180 174 182 181 173 185 180 182 188 210 241 264 270 277 288 289 297 305 301 292 291 297 302 303 305
168 177 188 182 174 170 159 161 172 169 158 171 177 180 175 168 182 175 188 186 198 215 240 262 279 281 273 276 285 300 294 284 287 296 298 301 301 304
161 166 166 168 159 159 170 176 167 160 152 159 164 177 171 160 181 182 200 200 219 233 257 278 273 267 269 280 287 288 284 285 287 289 293 297 303 303
137 152 145 140 155 170 171 176 191 181 173 159 165 171 170 175 185 194 202 211 221 249 261 265 268 270 275 276 278 281 282 282 281 284 290 292 293 292
137 142 151 157 154 163 172 189 182 168 166 169 173 175 178 187 202 212 225 231 242 264 267 268 271 274 270 272 277 280 280 277 278 281 280 284 288 288
139 141 152 160 165 169 163 165 167 159 163 169 177 182 185 204 213 228 247 252 252 269 268 267 270 269 272 274 274 275 276 274 272 274 279 284 286 286
130 135 141 151 156 156 152 151 164 156 159 167 178 190 194 229 240 245 243 250 255 257 253 267 273 274 273 272 273 274 273 270 270 273 278 281 283 283
130 135 136 139 143 148 159 174 165 173 172 178 185 208 225 243 243 235 243 243 253 264 271 260 266 269 269 276 279 276 273 270 270 272 273 276 280 282
145 145 141 152 159 169 174 177 184 193 205 210 212 236 240 239 235 252 249 250 254 263 272 265 255 268 264 259 269 279 272 270 269 268 270 274 279 280
158 160 162 162 166 163 162 170 187 200 210 221 231 236 245 251 260 264 264 265 265 258 260 265 267 263 261 262 259 275 273 266 267 266 266 270 273 275
161 155 148 140 135 138 143 153 166 185 202 224 249 263 268 271 274 270 264 261 264 268 263 271 275 269 265 261 255 267 272 265 261 262 264 267 270 274
154 150 147 145 144 147 156 168 182 227 259 269 273 274 275 277 276 275 271 261 266 272 273 263 271 276 270 269 258 257 261 267 259 257 261 265 271 269
157 154 155 161 165 178 201 227 251 269 274 274 277 278 279 279 278 276 273 269 265 270 276 273 268 274 268 271 276 268 255 257 259 256 255 258 263 274
167 180 189 199 218 235 242 255 268 279 284 284 281 278 279 281 283 284 284 285 280 279 278 268 268 272 275 274 270 270 267 259 256 258 260 267 259 274
190 206 215 239 258 272 279 286 290 291 289 281 279 281 281 276 272 296 302 299 294 290 284 279 277 284 272 273 271 268 269 260 270 258 257 259 251 253
222 247 262 270 275 279 286 284 285 283 279 276 276 276 282 295 300 307 299 298 282 284 285 291 298 296 291 289 279 270 266 267 261 263 266 257 251 257
261 262 273 280 287 285 273 262 262 274 290 294 294 301 302 302 302 300 304 314 304 307 305 300 291 292 284 282 279 279 274 269 275 266 260 252 251 269
269 269 249 245 244 236 235 242 243 288 296 300 309 317 320 321 324 331 325 319 313 312 310 310 308 302 294 289 285 290 287 281 281 276 263 251 260 265
275 251 253 239 237 242 225 230 208 274 325 337 337 344 352 347 329 322 324 320 316 315 315 317 314 308 302 295 310 304 297 289 284 281 261 256 264 264
256 234 224 217 196 198 217 224 16 6 11 6 3 1 348 334 324 323 319 318 315 314 318 319 320 310 306 310 308 304 304 296 288 279 271 258 266 268
197 203 196 206 220 209 201 134 80 21 353 336 325 323 319 328 322 323 323 320 319 322 321 321 319 311 313 307 302 303 297 298 302 306 305 292 266 267
193 185 182 172 155 139 120 328 311 337 17 360 343 343 337 343 339 333 332 328 325 322 317 313 315 311 313 311 308 304 300 302 309 311 305 285 260 272
147 146 134 128 119 61 60 56 57 52 33 11 358 357 355 350 341 335 333 330 325 320 318 320 319 319 315 314 314 311 312 317 322 318 313 308 288 290